Content
SEND FEEDBACK

Daily
Averages
Monthly
Summary
Switzerland

GENEVA, SWITZERLAND


Home > Europe > Switzerland
Elevation: 1364 feet     Latitude: 46 15N     Longitude: 006 08E

WEATHER
 
SELECT A DAY
Number of Records: 306,006;   Date Range: 7/1/96 - 8/30/14
 
SHARE

PRINT THIS DATA

[ ← Previous Day ]
WEATHER ALMANAC - NOVEMBER 29, 2013
[ Next Day → ]
[ °C ]   °F
Weather ElementAverageHighLow
Temperature34.2 °F37.4 °F (2:20 pm)32 °F (3:20 am)
Dewpoint28.8 °F32 °F (12:20 pm)25 °F (3:00 am)
Humidity78.1 %93 % (10:20 pm)63 % (7:00 pm)
Barometer30.36 in30.47 in (1:00 am)30.18 in (11:50 pm)
Wind Speed2.4 mph6.9 mph (6:00 pm)
Wind Gust29.9 mph (11:50 am)
Weather ElementAverage
Visibility5.3 mi
Wind DirectionESE (122 °)

Weather ElementTotal
Precipitation---
Heating Degree Days30.3 (Base 65)
Averaged from 66 records on November 29, 2013
WEATHER CONDITIONS BREAKOUT
WIND DIRECTION BREAKOUT
WEATHER BY HOUR - NOVEMBER 29, 2013
[ °C ]   °F
Local TimeTemperatureDewpointHumidityBarometerVisibilityWind DirectionWind SpeedGust SpeedPrecipitationEventsConditions
12:20 AM33.8 °F26.6 °F75 %30.39 in6.2 miCalmMostly Cloudy
12:50 AM33.8 °F26.6 °F75 %30.39 in6.2 miCalmMostly Cloudy
1:00 AM33.0 °F26.0 °F65 %30.47 in9.0 miEast (100°)3.5 mphOvercast
1:20 AM33.8 °F26.6 °F75 %30.39 in6.2 miSE (140°)2.3 mphMostly Cloudy
1:50 AM33.8 °F26.6 °F75 %30.39 in6.2 miVariable1.2 mphMostly Cloudy
2:00 AM33.0 °F26.0 °F65 %30.46 inEast (80°)2.3 mph
2:50 AM33.8 °F26.6 °F75 %30.39 in6.2 miVariable1.2 mphMostly Cloudy
3:00 AM33.0 °F25.0 °F64 %30.47 inWSW (240°)2.3 mph
3:20 AM32.0 °F26.6 °F80 %30.39 in6.2 miSW (220°)3.5 mphMostly Cloudy
3:50 AM32.0 °F26.6 °F80 %30.39 in6.2 miVariable2.3 mphMostly Cloudy
4:20 AM32.0 °F26.6 °F80 %30.39 in6.2 miSW (220°)4.6 mphOvercast
4:50 AM32.0 °F26.6 °F80 %30.39 in6.2 miSW (230°)3.5 mphOvercast
5:00 AM32.0 °F25.0 °F68 %30.47 inSW (230°)3.5 mph
5:20 AM32.0 °F26.6 °F80 %30.39 in6.2 miSW (230°)2.3 mphMostly Cloudy
5:50 AM32.0 °F26.6 °F80 %30.39 in6.2 miWSW (240°)2.3 mphOvercast
6:00 AM32.0 °F26.0 °F68 %30.47 inWSW (250°)2.3 mph
6:20 AM32.0 °F26.6 °F80 %30.39 in6.2 miCalmOvercast
6:50 AM32.0 °F26.6 °F80 %30.39 in6.2 miCalmOvercast
7:00 AM32.0 °F25.0 °F67 %30.47 in6.0 miCalmMist
7:20 AM32.0 °F26.6 °F80 %30.39 in6.2 miCalmMostly Cloudy
7:50 AM32.0 °F26.6 °F80 %30.39 in5.6 miWest (280°)1.2 mphOvercast
8:00 AM32.0 °F26.0 °F71 %30.47 inNW (320°)1.2 mph
8:20 AM32.0 °F26.6 °F80 %30.39 in5.6 miCalmOvercast
8:50 AM32.0 °F26.6 °F80 %30.39 in5.0 miCalmOvercast
9:00 AM33.0 °F27.0 °F70 %30.47 inWSW (240°)2.3 mph
9:20 AM32.0 °F28.4 °F87 %30.39 in5.0 miCalmOvercast
9:50 AM32.0 °F28.4 °F87 %30.39 in4.3 miCalmOvercast
10:20 AM33.8 °F30.2 °F87 %30.39 in3.7 miCalmOvercast
10:50 AM33.8 °F30.2 °F87 %30.39 in4.3 miCalmMostly Cloudy
11:00 AM34.0 °F29.0 °F75 %30.46 inWSW (250°)2.3 mph
11:20 AM33.8 °F30.2 °F87 %30.39 in4.3 miVariable1.2 mphOvercast
11:50 AM33.8 °F30.2 °F87 %30.36 in4.3 miCalm29.9 mphOvercast
12:00 PM35.0 °F30.0 °F77 %30.43 inSW (230°)1.2 mph
12:20 PM35.6 °F32.0 °F87 %30.36 in4.3 miVariable1.2 mphOvercast
12:50 PM35.6 °F32.0 °F87 %30.33 in4.3 miCalmMostly Cloudy
1:00 PM35.0 °F29.0 °F71 %30.40 in4.0 miSW (230°)2.3 mphMist
1:20 PM35.6 °F30.2 °F81 %30.33 in4.3 miVariable1.2 mphMostly Cloudy
1:50 PM35.6 °F32.0 °F87 %30.30 in5.0 miVariable3.5 mphMostly Cloudy
2:00 PM37.0 °F30.0 °F67 %30.37 inSW (230°)4.6 mph
2:20 PM37.4 °F32.0 °F81 %30.30 in5.0 miVariable3.5 mphMostly Cloudy
2:50 PM37.4 °F32.0 °F81 %30.30 in5.0 miVariable3.5 mphMostly Cloudy
3:00 PM37.0 °F30.0 °F67 %30.36 inWest (280°)4.6 mph
3:20 PM37.4 °F32.0 °F81 %30.30 in5.6 miVariable2.3 mphMostly Cloudy
3:50 PM37.4 °F30.2 °F75 %30.30 in5.6 miVariable2.3 mphMostly Cloudy
4:20 PM37.4 °F32.0 °F81 %30.30 in5.0 miVariable3.5 mphMostly Cloudy
4:50 PM35.6 °F32.0 °F87 %30.27 in5.0 miWSW (240°)3.5 mphMostly Cloudy
5:00 PM37.0 °F30.0 °F68 %30.35 inWSW (250°)4.6 mph
5:20 PM37.4 °F32.0 °F81 %30.30 in5.0 miVariable3.5 mphMostly Cloudy
5:50 PM35.6 °F30.2 °F81 %30.30 in5.0 miWSW (240°)5.8 mphMostly Cloudy
6:00 PM36.0 °F29.0 °F65 %30.36 inSW (230°)6.9 mph
6:20 PM35.6 °F30.2 °F81 %30.30 in5.0 miWSW (250°)5.8 mphMostly Cloudy
6:50 PM35.6 °F30.2 °F81 %30.30 in5.0 miSW (230°)2.3 mphMostly Cloudy
7:00 PM36.0 °F28.0 °F63 %30.36 in5.0 miWest (270°)3.5 mphMist
7:20 PM35.6 °F30.2 °F81 %30.30 in5.6 miVariable2.3 mphMostly Cloudy
7:50 PM35.6 °F28.4 °F75 %30.30 in5.6 miVariable2.3 mphMostly Cloudy
8:00 PM35.0 °F28.0 °F68 %30.35 inWest (280°)2.3 mph
8:20 PM35.6 °F30.2 °F81 %30.27 in5.0 miWest (280°)3.5 mphMostly Cloudy
8:50 PM33.8 °F28.4 °F81 %30.27 in5.6 miVariable1.2 mphMostly Cloudy
9:00 PM35.0 °F28.0 °F68 %30.34 inWest (270°)3.5 mph
9:20 PM35.6 °F28.4 °F75 %30.24 in5.6 miCalmMostly Cloudy
9:50 PM35.6 °F30.2 °F81 %30.24 in5.0 miVariable2.3 mphRainRain
10:20 PM33.8 °F32.0 °F93 %30.24 in4.3 miWSW (240°)3.5 mphRainRain
10:50 PM33.8 °F30.2 °F87 %30.21 in4.3 miSW (220°)5.8 mphMostly Cloudy
11:00 PM34.0 °F30.0 °F81 %30.28 inSW (230°)5.8 mph
11:20 PM33.8 °F32.0 °F93 %30.21 in4.3 miWSW (240°)4.6 mphMostly Cloudy
11:50 PM33.8 °F32.0 °F93 %30.18 in3.7 miSW (220°)5.8 mphMostly Cloudy
Hourly data recorded from LSGG, located miles away from Geneva, Switzerland







STORIES FROM OUR PARTNERS